User: anonymous   Login
Location: Bieujac
(44.5398°N, 0.1549°W)
Time: 15:39:48
(UTC+00:00)
Language:

BREEZE-M DEB (TANK) - Orbit

View from above orbital plane
View from above orbital plane
View from above satellite
View from above satellite

Ground track
Ground track

The orbit data is extracted from the following two-line orbital elements,

1 28870U 05036C   20017.19475757 +.00000313 +00000-0 +77157-4 0  9992
2 28870 049.4617 327.3406 5465318 196.7682 133.8512 04.84726463284735
Epoch (UTC): 17 January 2020 04:40:27
Eccentricity: 0.5465318
inclination: 49.4617°
perigee height: 309 km
apogee height: 16430 km
right ascension of ascending node: 327.3406°
argument of perigee: 196.7682°
revolutions per day: 4.84726463
mean anomaly at epoch: 133.8512°
orbit number at epoch: 28473

The dashed part of the orbit path shows where the satellite is in the earth's shadow,  

DLR